Year,Month,Day,Hour,Minute,Value (Times are PST for temperature in C)
2013,08,20,00,00,14.70
2013,08,20,00,01,14.70
2013,08,20,00,02,14.70
2013,08,20,00,03,14.70
2013,08,20,00,04,14.70
2013,08,20,00,05,14.70
2013,08,20,00,06,14.70
2013,08,20,00,07,14.70
2013,08,20,00,08,14.70
2013,08,20,00,09,14.70
2013,08,20,00,10,14.70
2013,08,20,00,11,14.70
2013,08,20,00,12,14.70
2013,08,20,00,13,14.70
2013,08,20,00,14,14.60
2013,08,20,00,15,14.60
2013,08,20,00,16,14.60
2013,08,20,00,17,14.60
2013,08,20,00,18,14.60
2013,08,20,00,19,14.60
2013,08,20,00,20,14.60
2013,08,20,00,21,14.60
2013,08,20,00,22,14.60
2013,08,20,00,23,14.60
2013,08,20,00,24,14.60
2013,08,20,00,25,14.60
2013,08,20,00,26,14.60
2013,08,20,00,27,14.60
2013,08,20,00,28,14.60
2013,08,20,00,29,14.60
2013,08,20,00,30,14.60
2013,08,20,00,31,14.60
2013,08,20,00,32,14.60
2013,08,20,00,33,14.60
2013,08,20,00,34,14.60
2013,08,20,00,35,14.50
2013,08,20,00,36,14.50
2013,08,20,00,37,14.50
2013,08,20,00,38,14.50
2013,08,20,00,39,14.40
2013,08,20,00,40,14.40
2013,08,20,00,41,14.40
2013,08,20,00,42,14.40
2013,08,20,00,43,14.40
2013,08,20,00,44,14.40
2013,08,20,00,45,14.30
2013,08,20,00,46,14.30
2013,08,20,00,47,14.30
2013,08,20,00,48,14.30
2013,08,20,00,49,14.30
2013,08,20,00,50,14.30
2013,08,20,00,51,14.20
2013,08,20,00,52,14.20
2013,08,20,00,53,14.20
2013,08,20,00,54,14.20
2013,08,20,00,55,14.20
2013,08,20,00,56,14.20
2013,08,20,00,57,14.10
2013,08,20,00,58,14.10
2013,08,20,00,59,14.10
2013,08,20,01,00,14.10
2013,08,20,01,01,14.10
2013,08,20,01,02,14.10
2013,08,20,01,03,14.10
2013,08,20,01,04,14.10
2013,08,20,01,05,14.10
2013,08,20,01,06,14.10
2013,08,20,01,07,14.10
2013,08,20,01,08,14.00
2013,08,20,01,09,14.00
2013,08,20,01,10,14.00
2013,08,20,01,11,14.00
2013,08,20,01,12,14.00
2013,08,20,01,13,14.00
2013,08,20,01,14,14.00
2013,08,20,01,15,14.00
2013,08,20,01,16,14.00
2013,08,20,01,17,14.00
2013,08,20,01,18,14.00
2013,08,20,01,19,14.00
2013,08,20,01,20,14.00
2013,08,20,01,21,13.90
2013,08,20,01,22,13.90
2013,08,20,01,23,13.90
2013,08,20,01,24,13.90
2013,08,20,01,25,13.90
2013,08,20,01,26,13.90
2013,08,20,01,27,14.00
2013,08,20,01,28,14.00
2013,08,20,01,29,14.00
2013,08,20,01,30,14.00
2013,08,20,01,31,14.00
2013,08,20,01,32,14.00
2013,08,20,01,33,14.00
2013,08,20,01,34,14.00
2013,08,20,01,35,14.00
2013,08,20,01,36,14.00
2013,08,20,01,37,14.00
2013,08,20,01,38,14.00
2013,08,20,01,39,14.10
2013,08,20,01,40,14.10
2013,08,20,01,41,14.10
2013,08,20,01,42,14.10
2013,08,20,01,43,14.10
2013,08,20,01,44,14.10
2013,08,20,01,45,14.10
2013,08,20,01,46,14.10
2013,08,20,01,47,14.10
2013,08,20,01,48,14.10
2013,08,20,01,49,14.10
2013,08,20,01,50,14.20
2013,08,20,01,51,14.20
2013,08,20,01,52,14.20
2013,08,20,01,53,14.20
2013,08,20,01,54,14.20
2013,08,20,01,55,14.10
2013,08,20,01,56,14.10
2013,08,20,01,57,14.10
2013,08,20,01,58,14.10
2013,08,20,01,59,14.10
2013,08,20,02,00,14.10
2013,08,20,02,01,14.10
2013,08,20,02,02,14.10
2013,08,20,02,03,14.10
2013,08,20,02,04,14.20
2013,08,20,02,05,14.20
2013,08,20,02,06,14.20
2013,08,20,02,07,14.20
2013,08,20,02,08,14.20
2013,08,20,02,09,14.20
2013,08,20,02,10,14.20
2013,08,20,02,11,14.20
2013,08,20,02,12,14.20
2013,08,20,02,13,14.20
2013,08,20,02,14,14.20
2013,08,20,02,15,14.20
2013,08,20,02,16,14.10
2013,08,20,02,17,14.10
2013,08,20,02,18,14.10
2013,08,20,02,19,14.10
2013,08,20,02,20,14.10
2013,08,20,02,21,14.10
2013,08,20,02,22,14.10
2013,08,20,02,23,14.10
2013,08,20,02,24,14.10
2013,08,20,02,25,14.10
2013,08,20,02,26,14.10
2013,08,20,02,27,14.10
2013,08,20,02,28,14.10
2013,08,20,02,29,14.10
2013,08,20,02,30,14.10
2013,08,20,02,31,14.10
2013,08,20,02,32,14.10
2013,08,20,02,33,14.10
2013,08,20,02,34,14.10
2013,08,20,02,35,14.10
2013,08,20,02,36,14.10
2013,08,20,02,37,14.10
2013,08,20,02,38,14.10
2013,08,20,02,39,14.10
2013,08,20,02,40,14.10
2013,08,20,02,41,14.10
2013,08,20,02,42,14.10
2013,08,20,02,43,14.10
2013,08,20,02,44,14.10
2013,08,20,02,45,14.00
2013,08,20,02,46,14.00
2013,08,20,02,47,14.00
2013,08,20,02,48,14.00
2013,08,20,02,49,14.00
2013,08,20,02,50,14.00
2013,08,20,02,51,13.90
2013,08,20,02,52,13.90
2013,08,20,02,53,13.90
2013,08,20,02,54,13.90
2013,08,20,02,55,13.90
2013,08,20,02,56,13.90
2013,08,20,02,57,13.90
2013,08,20,02,58,13.90
2013,08,20,02,59,13.90
2013,08,20,03,00,13.90
2013,08,20,03,01,13.90
2013,08,20,03,02,13.90
2013,08,20,03,03,13.90
2013,08,20,03,04,13.90
2013,08,20,03,05,13.90
2013,08,20,03,06,13.90
2013,08,20,03,07,13.90
2013,08,20,03,08,13.80
2013,08,20,03,09,13.80
2013,08,20,03,10,13.80
2013,08,20,03,11,13.80
2013,08,20,03,12,13.80
2013,08,20,03,13,13.80
2013,08,20,03,14,13.70
2013,08,20,03,15,13.70
2013,08,20,03,16,13.70
2013,08,20,03,17,13.70
2013,08,20,03,18,13.70
2013,08,20,03,19,13.70
2013,08,20,03,20,13.70
2013,08,20,03,21,13.80
2013,08,20,03,22,13.70
2013,08,20,03,23,13.80
2013,08,20,03,24,13.80
2013,08,20,03,25,13.80
2013,08,20,03,26,13.80
2013,08,20,03,27,13.80
2013,08,20,03,28,13.80
2013,08,20,03,29,13.80
2013,08,20,03,30,13.80
2013,08,20,03,31,13.70
2013,08,20,03,32,13.70
2013,08,20,03,33,13.70
2013,08,20,03,34,13.70
2013,08,20,03,35,13.70
2013,08,20,03,36,13.70
2013,08,20,03,37,13.70
2013,08,20,03,38,13.70
2013,08,20,03,39,13.70
2013,08,20,03,40,13.60
2013,08,20,03,41,13.60
2013,08,20,03,42,13.60
2013,08,20,03,43,13.60
2013,08,20,03,44,13.60
2013,08,20,03,45,13.60
2013,08,20,03,46,13.50
2013,08,20,03,47,13.50
2013,08,20,03,48,13.50
2013,08,20,03,49,13.50
2013,08,20,03,50,13.50
2013,08,20,03,51,13.50
2013,08,20,03,52,13.50
2013,08,20,03,53,13.50
2013,08,20,03,54,13.50
2013,08,20,03,55,13.50
2013,08,20,03,56,13.50
2013,08,20,03,57,13.50
2013,08,20,03,58,13.40
2013,08,20,03,59,13.40
2013,08,20,04,00,13.40
2013,08,20,04,01,13.40
2013,08,20,04,02,13.40
2013,08,20,04,03,13.40
2013,08,20,04,04,13.40
2013,08,20,04,05,13.40
2013,08,20,04,06,13.40
2013,08,20,04,07,13.40
2013,08,20,04,08,13.40
2013,08,20,04,09,13.40
2013,08,20,04,10,13.40
2013,08,20,04,11,13.40
2013,08,20,04,12,13.40
2013,08,20,04,13,13.40
2013,08,20,04,14,13.40
2013,08,20,04,15,13.40
2013,08,20,04,16,13.40
2013,08,20,04,17,13.40
2013,08,20,04,18,13.40
2013,08,20,04,19,13.40
2013,08,20,04,20,13.30
2013,08,20,04,21,13.30
2013,08,20,04,22,13.30
2013,08,20,04,23,13.30
2013,08,20,04,24,13.30
2013,08,20,04,25,13.30
2013,08,20,04,26,13.30
2013,08,20,04,27,13.30
2013,08,20,04,28,13.30
2013,08,20,04,29,13.30
2013,08,20,04,30,13.20
2013,08,20,04,31,13.20
2013,08,20,04,32,13.20
2013,08,20,04,33,13.20
2013,08,20,04,34,13.20
2013,08,20,04,35,13.20
2013,08,20,04,36,13.20
2013,08,20,04,37,13.20
2013,08,20,04,38,13.20
2013,08,20,04,39,13.10
2013,08,20,04,40,13.10
2013,08,20,04,41,13.10
2013,08,20,04,42,13.10
2013,08,20,04,43,13.10
2013,08,20,04,44,13.10
2013,08,20,04,45,13.10
2013,08,20,04,46,13.20
2013,08,20,04,47,13.20
2013,08,20,04,48,13.20
2013,08,20,04,49,13.20
2013,08,20,04,50,13.20
2013,08,20,04,51,13.20
2013,08,20,04,52,13.10
2013,08,20,04,53,13.10
2013,08,20,04,54,13.10
2013,08,20,04,55,13.10
2013,08,20,04,56,13.10
2013,08,20,04,57,13.10
2013,08,20,04,58,13.00
2013,08,20,04,59,13.00
2013,08,20,05,00,13.00
2013,08,20,05,01,13.00
2013,08,20,05,02,12.90
2013,08,20,05,03,12.90
2013,08,20,05,04,12.90
2013,08,20,05,05,12.90
2013,08,20,05,06,12.90
2013,08,20,05,07,12.90
2013,08,20,05,08,12.90
2013,08,20,05,09,12.90
2013,08,20,05,10,12.90
2013,08,20,05,11,12.90
2013,08,20,05,12,13.00
2013,08,20,05,13,13.00
2013,08,20,05,14,13.00
2013,08,20,05,15,13.00
2013,08,20,05,16,13.10
2013,08,20,05,17,13.10
2013,08,20,05,18,13.10
2013,08,20,05,19,13.10
2013,08,20,05,20,13.10
2013,08,20,05,21,13.20
2013,08,20,05,22,13.20
2013,08,20,05,23,13.20
2013,08,20,05,24,13.20
2013,08,20,05,25,13.20
2013,08,20,05,26,13.20
2013,08,20,05,27,13.20
2013,08,20,05,28,13.20
2013,08,20,05,29,13.20
2013,08,20,05,30,13.20
2013,08,20,05,31,13.20
2013,08,20,05,32,13.20
2013,08,20,05,33,13.20
2013,08,20,05,34,13.20
2013,08,20,05,35,13.20
2013,08,20,05,36,13.20
2013,08,20,05,37,13.20
2013,08,20,05,38,13.20
2013,08,20,05,39,13.10
2013,08,20,05,40,13.10
2013,08,20,05,41,13.10
2013,08,20,05,42,13.10
2013,08,20,05,43,13.10
2013,08,20,05,44,13.10
2013,08,20,05,45,13.10
2013,08,20,05,46,13.10
2013,08,20,05,47,13.10
2013,08,20,05,48,13.10
2013,08,20,05,49,13.10
2013,08,20,05,50,13.10
2013,08,20,05,51,13.00
2013,08,20,05,52,13.00
2013,08,20,05,53,13.00
2013,08,20,05,54,13.00
2013,08,20,05,55,13.00
2013,08,20,05,56,13.00
2013,08,20,05,57,12.90
2013,08,20,05,58,12.90
2013,08,20,05,59,12.90
2013,08,20,06,00,12.90
2013,08,20,06,01,12.90
2013,08,20,06,02,12.90
2013,08,20,06,03,12.90
2013,08,20,06,04,12.90
2013,08,20,06,05,12.90
2013,08,20,06,06,12.90
2013,08,20,06,07,12.80
2013,08,20,06,08,12.80
2013,08,20,06,09,12.80
2013,08,20,06,10,12.70
2013,08,20,06,11,12.70
2013,08,20,06,12,12.70
2013,08,20,06,13,12.70
2013,08,20,06,14,12.70
2013,08,20,06,15,12.70
2013,08,20,06,16,12.70
2013,08,20,06,17,12.60
2013,08,20,06,18,12.60
2013,08,20,06,19,12.60
2013,08,20,06,20,12.60
2013,08,20,06,21,12.60
2013,08,20,06,22,12.50
2013,08,20,06,23,12.50
2013,08,20,06,24,12.50
2013,08,20,06,25,12.50
2013,08,20,06,26,12.50
2013,08,20,06,27,12.50
2013,08,20,06,28,12.50
2013,08,20,06,29,12.60
2013,08,20,06,30,12.60
2013,08,20,06,31,12.60
2013,08,20,06,32,12.60
2013,08,20,06,33,12.60
2013,08,20,06,34,12.60
2013,08,20,06,35,12.60
2013,08,20,06,36,12.60
2013,08,20,06,37,12.60
2013,08,20,06,38,12.60
2013,08,20,06,39,12.60
2013,08,20,06,40,12.60
2013,08,20,06,41,12.60
2013,08,20,06,42,12.60
2013,08,20,06,43,12.60
2013,08,20,06,44,12.60
2013,08,20,06,45,12.60
2013,08,20,06,46,12.60
2013,08,20,06,47,12.60
2013,08,20,06,48,12.60
2013,08,20,06,49,12.60
2013,08,20,06,50,12.60
2013,08,20,06,51,12.60
2013,08,20,06,52,12.60
2013,08,20,06,53,12.60
2013,08,20,06,54,12.60
2013,08,20,06,55,12.60
2013,08,20,06,56,12.60
2013,08,20,06,57,12.60
2013,08,20,06,58,12.60
2013,08,20,06,59,12.60
2013,08,20,07,00,12.60
2013,08,20,07,01,12.60
2013,08,20,07,02,12.60
2013,08,20,07,03,12.60
2013,08,20,07,04,12.60
2013,08,20,07,05,12.60
2013,08,20,07,06,12.60
2013,08,20,07,07,12.60
2013,08,20,07,08,12.70
2013,08,20,07,09,12.70
2013,08,20,07,10,12.70
2013,08,20,07,11,12.80
2013,08,20,07,12,12.80
2013,08,20,07,13,12.80
2013,08,20,07,14,12.90
2013,08,20,07,15,12.90
2013,08,20,07,16,12.90
2013,08,20,07,17,13.00
2013,08,20,07,18,13.00
2013,08,20,07,19,13.00
2013,08,20,07,20,13.10
2013,08,20,07,21,13.10
2013,08,20,07,22,13.10
2013,08,20,07,23,13.10
2013,08,20,07,24,13.20
2013,08,20,07,25,13.20
2013,08,20,07,26,13.20
2013,08,20,07,27,13.20
2013,08,20,07,28,13.30
2013,08,20,07,29,13.30
2013,08,20,07,30,13.40
2013,08,20,07,31,13.40
2013,08,20,07,32,13.50
2013,08,20,07,33,13.60
2013,08,20,07,34,13.60
2013,08,20,07,35,13.70
2013,08,20,07,36,13.70
2013,08,20,07,37,13.80
2013,08,20,07,38,13.90
2013,08,20,07,39,14.00
2013,08,20,07,40,14.10
2013,08,20,07,41,14.20
2013,08,20,07,42,14.30
2013,08,20,07,43,14.40
2013,08,20,07,44,14.40
2013,08,20,07,45,14.50
2013,08,20,07,46,14.60
2013,08,20,07,47,14.60
2013,08,20,07,48,14.70
2013,08,20,07,49,14.80
2013,08,20,07,50,14.80
2013,08,20,07,51,14.90
2013,08,20,07,52,15.00
2013,08,20,07,53,15.10
2013,08,20,07,54,15.10
2013,08,20,07,55,15.20
2013,08,20,07,56,15.20
2013,08,20,07,57,15.30
2013,08,20,07,58,15.30
2013,08,20,07,59,15.30
2013,08,20,08,00,15.30
2013,08,20,08,01,15.40
2013,08,20,08,02,15.40
2013,08,20,08,03,15.40
2013,08,20,08,04,15.40
2013,08,20,08,05,15.50
2013,08,20,08,06,15.50
2013,08,20,08,07,15.50
2013,08,20,08,08,15.60
2013,08,20,08,09,15.70
2013,08,20,08,10,15.80
2013,08,20,08,11,15.80
2013,08,20,08,12,15.90
2013,08,20,08,13,15.90
2013,08,20,08,14,15.90
2013,08,20,08,15,15.90
2013,08,20,08,16,16.00
2013,08,20,08,17,16.00
2013,08,20,08,18,16.00
2013,08,20,08,19,16.00
2013,08,20,08,20,16.10
2013,08,20,08,21,16.10
2013,08,20,08,22,16.10
2013,08,20,08,23,16.10
2013,08,20,08,24,16.20
2013,08,20,08,25,16.20
2013,08,20,08,26,16.20
2013,08,20,08,27,16.20
2013,08,20,08,28,16.30
2013,08,20,08,29,16.30
2013,08,20,08,30,16.30
2013,08,20,08,31,16.40
2013,08,20,08,32,16.50
2013,08,20,08,33,16.50
2013,08,20,08,34,16.60
2013,08,20,08,35,16.60
2013,08,20,08,36,16.70
2013,08,20,08,37,16.80
2013,08,20,08,38,16.80
2013,08,20,08,39,16.80
2013,08,20,08,40,16.80
2013,08,20,08,41,16.80
2013,08,20,08,42,16.80
2013,08,20,08,43,16.80
2013,08,20,08,44,16.80
2013,08,20,08,45,16.80
2013,08,20,08,46,16.90
2013,08,20,08,47,16.90
2013,08,20,08,48,16.90
2013,08,20,08,49,17.00
2013,08,20,08,50,17.00
2013,08,20,08,51,17.10
2013,08,20,08,52,17.10
2013,08,20,08,53,17.20
2013,08,20,08,54,17.20
2013,08,20,08,55,17.20
2013,08,20,08,56,17.20
2013,08,20,08,57,17.20
2013,08,20,08,58,17.20
2013,08,20,08,59,17.20
2013,08,20,09,00,17.20
2013,08,20,09,01,17.30
2013,08,20,09,02,17.30
2013,08,20,09,03,17.30
2013,08,20,09,04,17.40
2013,08,20,09,05,17.50
2013,08,20,09,06,17.50
2013,08,20,09,07,17.60
2013,08,20,09,08,17.70
2013,08,20,09,09,17.70
2013,08,20,09,10,17.80
2013,08,20,09,11,17.80
2013,08,20,09,12,17.80
2013,08,20,09,13,17.80
2013,08,20,09,14,17.80
2013,08,20,09,15,17.80
2013,08,20,09,16,17.80
2013,08,20,09,17,17.80
2013,08,20,09,18,17.90
2013,08,20,09,19,17.90
2013,08,20,09,20,17.90
2013,08,20,09,21,18.00
2013,08,20,09,22,18.10
2013,08,20,09,23,18.20
2013,08,20,09,24,18.30
2013,08,20,09,25,18.40
2013,08,20,09,26,18.50
2013,08,20,09,27,18.60
2013,08,20,09,28,18.70
2013,08,20,09,29,18.70
2013,08,20,09,30,18.80
2013,08,20,09,31,18.80
2013,08,20,09,32,18.80
2013,08,20,09,33,18.90
2013,08,20,09,34,18.90
2013,08,20,09,35,18.90
2013,08,20,09,36,18.90
2013,08,20,09,37,18.90
2013,08,20,09,38,19.00
2013,08,20,09,39,19.00
2013,08,20,09,40,19.10
2013,08,20,09,41,19.10
2013,08,20,09,42,19.10
2013,08,20,09,43,19.20
2013,08,20,09,44,19.20
2013,08,20,09,45,19.20
2013,08,20,09,46,19.20
2013,08,20,09,47,19.20
2013,08,20,09,48,19.20
2013,08,20,09,49,19.20
2013,08,20,09,50,19.10
2013,08,20,09,51,19.10
2013,08,20,09,52,19.10
2013,08,20,09,53,19.10
2013,08,20,09,54,19.10
2013,08,20,09,55,19.10
2013,08,20,09,56,19.20
2013,08,20,09,57,19.20
2013,08,20,09,58,19.20
2013,08,20,09,59,19.20
2013,08,20,10,00,19.30
2013,08,20,10,01,19.40
2013,08,20,10,02,19.50
2013,08,20,10,03,19.70
2013,08,20,10,04,19.80
2013,08,20,10,05,20.00
2013,08,20,10,06,20.10
2013,08,20,10,07,20.30
2013,08,20,10,08,20.40
2013,08,20,10,09,20.60
2013,08,20,10,10,20.70
2013,08,20,10,11,20.80
2013,08,20,10,12,20.90
2013,08,20,10,13,21.00
2013,08,20,10,14,21.00
2013,08,20,10,15,20.90
2013,08,20,10,16,20.80
2013,08,20,10,17,20.70
2013,08,20,10,18,20.60
2013,08,20,10,19,20.40
2013,08,20,10,20,20.40
2013,08,20,10,21,20.20
2013,08,20,10,22,20.10
2013,08,20,10,23,19.90
2013,08,20,10,24,19.80
2013,08,20,10,25,19.70
2013,08,20,10,26,19.70
2013,08,20,10,27,19.70
2013,08,20,10,28,19.70
2013,08,20,10,29,19.80
2013,08,20,10,30,19.80
2013,08,20,10,31,19.80
2013,08,20,10,32,19.90
2013,08,20,10,33,20.00
2013,08,20,10,34,20.20
2013,08,20,10,35,20.20
2013,08,20,10,36,20.20
2013,08,20,10,37,20.30
2013,08,20,10,38,20.40
2013,08,20,10,39,20.50
2013,08,20,10,40,20.60
2013,08,20,10,41,20.70
2013,08,20,10,42,20.70
2013,08,20,10,43,20.70
2013,08,20,10,44,20.70
2013,08,20,10,45,20.70
2013,08,20,10,46,20.80
2013,08,20,10,47,20.90
2013,08,20,10,48,20.80
2013,08,20,10,49,20.80
2013,08,20,10,50,20.70
2013,08,20,10,51,20.60
2013,08,20,10,52,20.50
2013,08,20,10,53,20.40
2013,08,20,10,54,20.40
2013,08,20,10,55,20.40
2013,08,20,10,56,20.40
2013,08,20,10,57,20.40
2013,08,20,10,58,20.30
2013,08,20,10,59,20.30
2013,08,20,11,00,20.40
2013,08,20,11,01,20.50
2013,08,20,11,02,20.70
2013,08,20,11,03,20.80
2013,08,20,11,04,20.80
2013,08,20,11,05,20.80
2013,08,20,11,06,20.80
2013,08,20,11,07,20.70
2013,08,20,11,08,20.70
2013,08,20,11,09,20.70
2013,08,20,11,10,20.80
2013,08,20,11,11,20.80
2013,08,20,11,12,20.80
2013,08,20,11,13,20.80
2013,08,20,11,14,20.80
2013,08,20,11,15,20.90
2013,08,20,11,16,20.90
2013,08,20,11,17,21.00
2013,08,20,11,18,21.00
2013,08,20,11,19,21.20
2013,08,20,11,20,21.20
2013,08,20,11,21,21.30
2013,08,20,11,22,21.40
2013,08,20,11,23,21.50
2013,08,20,11,24,21.60
2013,08,20,11,25,21.70
2013,08,20,11,26,21.70
2013,08,20,11,27,21.80
2013,08,20,11,28,21.80
2013,08,20,11,29,21.70
2013,08,20,11,30,21.70
2013,08,20,11,31,21.60
2013,08,20,11,32,21.60
2013,08,20,11,33,21.60
2013,08,20,11,34,21.60
2013,08,20,11,35,21.50
2013,08,20,11,36,21.50
2013,08,20,11,37,21.40
2013,08,20,11,38,21.50
2013,08,20,11,39,21.50
2013,08,20,11,40,21.60
2013,08,20,11,41,21.60
2013,08,20,11,42,21.60
2013,08,20,11,43,21.60
2013,08,20,11,44,21.60
2013,08,20,11,45,21.60
2013,08,20,11,46,21.70
2013,08,20,11,47,21.70
2013,08,20,11,48,21.80
2013,08,20,11,49,21.80
2013,08,20,11,50,21.80
2013,08,20,11,51,21.80
2013,08,20,11,52,21.90
2013,08,20,11,53,22.00
2013,08,20,11,54,22.10
2013,08,20,11,55,22.20
2013,08,20,11,56,22.20
2013,08,20,11,57,22.10
2013,08,20,11,58,22.10
2013,08,20,11,59,21.90
2013,08,20,12,00,21.60
2013,08,20,12,01,21.50
2013,08,20,12,02,21.40
2013,08,20,12,03,21.30
2013,08,20,12,04,21.20
2013,08,20,12,05,21.10
2013,08,20,12,06,21.00
2013,08,20,12,07,20.90
2013,08,20,12,08,20.90
2013,08,20,12,09,20.90
2013,08,20,12,10,21.00
2013,08,20,12,11,21.00
2013,08,20,12,12,21.00
2013,08,20,12,13,20.90
2013,08,20,12,14,20.90
2013,08,20,12,15,21.00
2013,08,20,12,16,21.10
2013,08,20,12,17,21.20
2013,08,20,12,18,21.30
2013,08,20,12,19,21.30
2013,08,20,12,20,21.40
2013,08,20,12,21,21.50
2013,08,20,12,22,21.60
2013,08,20,12,23,21.60
2013,08,20,12,24,21.70
2013,08,20,12,25,21.70
2013,08,20,12,26,21.70
2013,08,20,12,27,21.70
2013,08,20,12,28,21.70
2013,08,20,12,29,21.70
2013,08,20,12,30,21.80
2013,08,20,12,31,21.80
2013,08,20,12,32,21.80
2013,08,20,12,33,21.80
2013,08,20,12,34,21.80
2013,08,20,12,35,21.90
2013,08,20,12,36,21.90
2013,08,20,12,37,21.70
2013,08,20,12,38,21.50
2013,08,20,12,39,21.30
2013,08,20,12,40,21.20
2013,08,20,12,41,21.30
2013,08,20,12,42,21.30
2013,08,20,12,43,21.40
2013,08,20,12,44,21.50
2013,08,20,12,45,21.60
2013,08,20,12,46,21.70
2013,08,20,12,47,21.80
2013,08,20,12,48,22.00
2013,08,20,12,49,22.10
2013,08,20,12,50,22.20
2013,08,20,12,51,22.20
2013,08,20,12,52,22.30
2013,08,20,12,53,22.40
2013,08,20,12,54,22.40
2013,08,20,12,55,22.40
2013,08,20,12,56,22.30
2013,08,20,12,57,22.30
2013,08,20,12,58,22.30
2013,08,20,12,59,22.40
2013,08,20,13,00,22.40
2013,08,20,13,01,22.40
2013,08,20,13,02,22.40
2013,08,20,13,03,22.50
2013,08,20,13,04,22.60
2013,08,20,13,05,22.60
2013,08,20,13,06,22.70
2013,08,20,13,07,22.70
2013,08,20,13,08,22.70
2013,08,20,13,09,22.60
2013,08,20,13,10,22.60
2013,08,20,13,11,22.50
2013,08,20,13,12,22.50
2013,08,20,13,13,22.50
2013,08,20,13,14,22.50
2013,08,20,13,15,22.40
2013,08,20,13,16,22.30
2013,08,20,13,17,22.40
2013,08,20,13,18,22.30
2013,08,20,13,19,22.30
2013,08,20,13,20,22.30
2013,08,20,13,21,22.20
2013,08,20,13,22,22.20
2013,08,20,13,23,22.20
2013,08,20,13,24,22.20
2013,08,20,13,25,22.20
2013,08,20,13,26,22.10
2013,08,20,13,27,21.90
2013,08,20,13,28,21.70
2013,08,20,13,29,21.70
2013,08,20,13,30,21.70
2013,08,20,13,31,21.70
2013,08,20,13,32,21.70
2013,08,20,13,33,21.60
2013,08,20,13,34,21.60
2013,08,20,13,35,21.60
2013,08,20,13,36,21.70
2013,08,20,13,37,21.90
2013,08,20,13,38,22.10
2013,08,20,13,39,22.20
2013,08,20,13,40,22.40
2013,08,20,13,41,22.60
2013,08,20,13,42,22.60
2013,08,20,13,43,22.70
2013,08,20,13,44,22.80
2013,08,20,13,45,22.90
2013,08,20,13,46,22.80
2013,08,20,13,47,22.70
2013,08,20,13,48,22.40
2013,08,20,13,49,22.00
2013,08,20,13,50,21.80
2013,08,20,13,51,21.60
2013,08,20,13,52,21.60
2013,08,20,13,53,21.60
2013,08,20,13,54,21.60
2013,08,20,13,55,21.50
2013,08,20,13,56,21.40
2013,08,20,13,57,21.40
2013,08,20,13,58,21.30
2013,08,20,13,59,21.30
2013,08,20,14,00,21.30
2013,08,20,14,01,21.30
2013,08,20,14,02,21.30
2013,08,20,14,03,21.30
2013,08,20,14,04,21.20
2013,08,20,14,05,21.00
2013,08,20,14,06,20.90
2013,08,20,14,07,20.80
2013,08,20,14,08,20.60
2013,08,20,14,09,20.60
2013,08,20,14,10,20.60
2013,08,20,14,11,20.60
2013,08,20,14,12,20.50
2013,08,20,14,13,20.50
2013,08,20,14,14,20.50
2013,08,20,14,15,20.50
2013,08,20,14,16,20.50
2013,08,20,14,17,20.50
2013,08,20,14,18,20.30
2013,08,20,14,19,20.30
2013,08,20,14,20,20.30
2013,08,20,14,21,20.30
2013,08,20,14,22,20.40
2013,08,20,14,23,20.40
2013,08,20,14,24,20.50
2013,08,20,14,25,20.50
2013,08,20,14,26,20.50
2013,08,20,14,27,20.50
2013,08,20,14,28,20.60
2013,08,20,14,29,20.70
2013,08,20,14,30,20.80
2013,08,20,14,31,20.90
2013,08,20,14,32,20.90
2013,08,20,14,33,20.90
2013,08,20,14,34,20.90
2013,08,20,14,35,20.80
2013,08,20,14,36,20.80
2013,08,20,14,37,20.80
2013,08,20,14,38,20.80
2013,08,20,14,39,20.80
2013,08,20,14,40,20.80
2013,08,20,14,41,20.90
2013,08,20,14,42,21.00
2013,08,20,14,43,21.20
2013,08,20,14,44,21.40
2013,08,20,14,45,21.40
2013,08,20,14,46,21.40
2013,08,20,14,47,21.30
2013,08,20,14,48,21.20
2013,08,20,14,49,21.00
2013,08,20,14,50,20.90
2013,08,20,14,51,20.90
2013,08,20,14,52,20.80
2013,08,20,14,53,20.80
2013,08,20,14,54,20.70
2013,08,20,14,55,20.50
2013,08,20,14,56,20.40
2013,08,20,14,57,20.50
2013,08,20,14,58,20.50
2013,08,20,14,59,20.50
2013,08,20,15,00,20.40
2013,08,20,15,01,20.30
2013,08,20,15,02,20.20
2013,08,20,15,03,20.30
2013,08,20,15,04,20.20
2013,08,20,15,05,20.10
2013,08,20,15,06,19.90
2013,08,20,15,07,19.80
2013,08,20,15,08,19.80
2013,08,20,15,09,19.80
2013,08,20,15,10,19.80
2013,08,20,15,11,19.80
2013,08,20,15,12,19.80
2013,08,20,15,13,19.90
2013,08,20,15,14,19.90
2013,08,20,15,15,19.90
2013,08,20,15,16,20.00
2013,08,20,15,17,20.20
2013,08,20,15,18,20.20
2013,08,20,15,19,20.30
2013,08,20,15,20,20.30
2013,08,20,15,21,20.30
2013,08,20,15,22,20.30
2013,08,20,15,23,20.30
2013,08,20,15,24,20.30
2013,08,20,15,25,20.30
2013,08,20,15,26,20.20
2013,08,20,15,27,20.20
2013,08,20,15,28,20.20
2013,08,20,15,29,20.20
2013,08,20,15,30,20.20
2013,08,20,15,31,20.30
2013,08,20,15,32,20.30
2013,08,20,15,33,20.20
2013,08,20,15,34,20.20
2013,08,20,15,35,20.10
2013,08,20,15,36,20.10
2013,08,20,15,37,20.10
2013,08,20,15,38,20.20
2013,08,20,15,39,20.30
2013,08,20,15,40,20.30
2013,08,20,15,41,20.30
2013,08,20,15,42,20.30
2013,08,20,15,43,20.20
2013,08,20,15,44,20.10
2013,08,20,15,45,20.00
2013,08,20,15,46,19.90
2013,08,20,15,47,19.90
2013,08,20,15,48,20.00
2013,08,20,15,49,20.00
2013,08,20,15,50,20.00
2013,08,20,15,51,20.10
2013,08,20,15,52,20.10
2013,08,20,15,53,20.20
2013,08,20,15,54,20.20
2013,08,20,15,55,20.30
2013,08,20,15,56,20.30
2013,08,20,15,57,20.30
2013,08,20,15,58,20.30
2013,08,20,15,59,20.20
2013,08,20,16,00,20.20
2013,08,20,16,01,20.20
2013,08,20,16,02,20.20
2013,08,20,16,03,20.20
2013,08,20,16,04,20.20
2013,08,20,16,05,20.20
2013,08,20,16,06,20.20
2013,08,20,16,07,20.20
2013,08,20,16,08,20.30
2013,08,20,16,09,20.30
2013,08,20,16,10,20.40
2013,08,20,16,11,20.50
2013,08,20,16,12,20.50
2013,08,20,16,13,20.50
2013,08,20,16,14,20.40
2013,08,20,16,15,20.40
2013,08,20,16,16,20.50
2013,08,20,16,17,20.50
2013,08,20,16,18,20.50
2013,08,20,16,19,20.60
2013,08,20,16,20,20.60
2013,08,20,16,21,20.60
2013,08,20,16,22,20.60
2013,08,20,16,23,20.50
2013,08,20,16,24,20.40
2013,08,20,16,25,20.40
2013,08,20,16,26,20.40
2013,08,20,16,27,20.40
2013,08,20,16,28,20.40
2013,08,20,16,29,20.40
2013,08,20,16,30,20.30
2013,08,20,16,31,20.40
2013,08,20,16,32,20.40
2013,08,20,16,33,20.50
2013,08,20,16,34,20.60
2013,08,20,16,35,20.60
2013,08,20,16,36,20.60
2013,08,20,16,37,20.60
2013,08,20,16,38,20.70
2013,08,20,16,39,20.70
2013,08,20,16,40,20.70
2013,08,20,16,41,20.70
2013,08,20,16,42,20.60
2013,08,20,16,43,20.70
2013,08,20,16,44,20.70
2013,08,20,16,45,20.70
2013,08,20,16,46,20.80
2013,08,20,16,47,20.80
2013,08,20,16,48,20.70
2013,08,20,16,49,20.70
2013,08,20,16,50,20.60
2013,08,20,16,51,20.60
2013,08,20,16,52,20.50
2013,08,20,16,53,20.40
2013,08,20,16,54,20.40
2013,08,20,16,55,20.40
2013,08,20,16,56,20.50
2013,08,20,16,57,20.50
2013,08,20,16,58,20.60
2013,08,20,16,59,20.60
2013,08,20,17,00,20.70
2013,08,20,17,01,20.70
2013,08,20,17,02,20.60
2013,08,20,17,03,20.60
2013,08,20,17,04,20.50
2013,08,20,17,05,20.50
2013,08,20,17,06,20.50
2013,08,20,17,07,20.50
2013,08,20,17,08,20.50
2013,08,20,17,09,20.60
2013,08,20,17,10,20.60
2013,08,20,17,11,20.70
2013,08,20,17,12,20.70
2013,08,20,17,13,20.70
2013,08,20,17,14,20.60
2013,08,20,17,15,20.50
2013,08,20,17,16,20.50
2013,08,20,17,17,20.50
2013,08,20,17,18,20.50
2013,08,20,17,19,20.50